Other Public Products
Issued by NWS Charleston, SC

Current Version | Previous Version | Text Only | Print | Product List | Glossary Off
Versions: 1 2 3 4 5 6 7 8 9 10 11 12 13 14 15 16 17 18 19 20 21 22 23 24 25 26 27 28 29 30 31 32 33 34 35 36 37 38 39 40 41 42 43 44 45 46 47 48 49 50

000
FPUS82 KCHS 191012
OPUCHS

TEST...KCHS/KSAV Gateway Observations...TEST
National Weather Service Charleston SC
600 AM EDT SAT AUG 19 2017

NOTE: "fair" indicates few or no clouds below 12,000 feet with no
significant weather and/or obstructions to visibility.

SCZ050-WAZ558-NCZ071-TXZ119-213-PAZ071-DCZ001-FLZ074-172-MI076-
NYZ176-178-MAZ016-IL014-TNZ027-NJZ106-GAZ044-MD014-191100-

...Gateway Observations for Charleston International...

CITY           SKY/WX    TMP DP  RH WIND       PRES   REMARKS
Chas Airport   CLEAR     79  74  84 SW3       29.93S
Seattle        MOCLDY    62  51  67 NE9       30.16R
Charlotte      PTCLDY    75  72  90 NE5       29.96R
Dallas DFW     CLEAR     79  73  82 S6        29.95S
Dallas Love    PTCLDY    81  72  74 S7        29.97R
Philladelphia  MOCLDY    76  72  87 W8        29.84R
Wash National  CLOUDY    79  68  69 NW10      29.87R
Baltimore      MOCLDY    74  72  93 W6        29.85R
Miami          PTCLDY    84  75  74 E7        29.95R HX  92
Detroit        MOCLDY    65  61  87 SW5       29.88R
Newark         CLOUDY    74  72  93 SW5       29.81R
Laguardia      MOCLDY    75  73  93 W5        29.80R
J F K          CLOUDY    73  73 100 W9        29.82R
Boston Logan   CLOUDY    65  65 100 N7        29.78R
Ft. Lauderdale PTCLDY    83  76  79 E12       29.94S HX  91
Chicago O`Hare CLEAR     64  59  83 W3        29.90S
Chicago Midway CLEAR     67  61  81 NW5       29.90S
Houston Bush   PTCLDY    79  76  90 CALM      29.99S
Houston Hobby  PTCLDY    82  76  81 CALM      29.98F
Nashville      MOCLDY    68  66  93 S5        29.98R
Atlanta        PTCLDY    69  65  86 W8        30.00R

$$

GAZ044-118-TXZ119-213-NCZ071-DCZ001-MDZ014-506-PAZ021-071-NJZ106-
NYZ176-178-MAZ106-OHZ011-021-055-MIZ076-KYZ091-ILZ014-INZ047-
MNZ060-ONZ431-191100-

...Gateway Observations for Savannah International...

CITY           SKY/WX    TMP DP  RH WIND       PRES   REMARKS
Savannah Arpt  CLEAR     76  74  93 W5        29.95S
Atlanta        PTCLDY    69  65  86 W8        30.00R
Charlotte      PTCLDY    75  72  90 NE5       29.96R
Dallas DFW     CLEAR     79  73  82 S6        29.95S
Houston Bush   PTCLDY    79  76  90 CALM      29.99S
Wash National  CLOUDY    79  68  69 NW10      29.87R
Wash Dulles    MOCLDY    71  71 100 CALM      29.88R
Baltimore      MOCLDY    74  72  93 W6        29.85R
Philadelphia   MOCLDY    76  72  87 W8        29.84R
Newark         CLOUDY    74  72  93 SW5       29.81R
Laguardia      MOCLDY    75  73  93 W5        29.80R
J F K          CLOUDY    73  73 100 W9        29.82R
Boston         CLOUDY    65  65 100 N7        29.78R
Pittsburg      PTCLDY    66  64  93 CALM      29.92R
Akron          CLOUDY    64  60  87 SW5       29.92R
Cleveland      CLOUDY    66  62  87 S5        29.90S
Cincinnati     CLOUDY    69  67  93 CALM      29.95R
Columbus       CLOUDY    64  64 100 S3        29.92S
Detroit        MOCLDY    65  61  87 SW5       29.88R
Chicago O`Hare CLEAR     64  59  83 W3        29.90S
Minneapolis    PTCLDY    61  58  90 S3        29.91F
Indianapolis   MOCLDY    70  65  84 NW5       29.92R
Toronto Canada MOCLDY    64  59  82 W9        29.79R

$$




USA.gov is the U.S. government's official web portal to all federal, state and local government web resources and services.